Simultaneous Nadir Overpasses (SNOs) Predictions

Prediction of SNOs between NOAA-19 and NPP Satellite Orbit:

Table of predicted SNOs for the next 14.0 days since TLE Epoch: 2/1/2012
Index Date (NOAA-19) Time (NOAA-19) NOAA-19 Lat,Lon Date (NPP) Time (NPP) NPP Lat,Lon Distance(km) Time Diff (sec)
1 02/08/2012 11:51:41 80.44, -41.89 02/08/2012 11:52:53 80.44, -41.82 1.43 72
2 02/08/2012 12:42:47 -80.41, 125.74 02/08/2012 12:43:37 -80.41, 125.87 2.49 50
3 02/08/2012 13:33:42 80.34, -65.96 02/08/2012 13:34:19 80.33, -65.87 1.71 37
4 02/08/2012 14:24:48 -80.31, 101.66 02/08/2012 14:25:03 -80.30, 101.81 2.83 15
5 02/08/2012 15:15:42 80.20, -89.74 02/08/2012 15:15:44 80.20, -89.64 2.03 2
6 02/08/2012 16:06:40 -79.96, 80.29 02/08/2012 16:06:21 -79.96, 80.13 3.20 19
7 02/08/2012 16:57:41
